Dashboard

GC7XB55 - 08# De Blauwbloezen

by Expie

published: Wed, 12 Sep 2018 8:04:00 am

Certitude Solution



Puzzle stats
124 Woo-Hoo!
92 D'Oh!
Latest activity:
Wed, 19 Sep 2018
Note that some of those attempts may have been anonymous.



You can subscribe to an RSS feed for:
 this puzzle
 Expie's puzzles
 puzzles in N50 E004 quadrangle
 puzzles in Vlaams-Brabant
 all puzzles

Your geocaching name is unknown, please sign in to identify yourself. How does it work?

Puzzle solvers, you can certify your solution here:
Show solution 
Show attempts 

(keyword required)
  Stay anonymous

Certified solvers

RankUserTime (Brussels, Europe)
1.KamaSnurkaWed, 12 Sep 2018 8:15:40 am
2.DwiggerWed, 12 Sep 2018 8:18:07 am
3.KoidreamWed, 12 Sep 2018 8:23:21 am
4.soyoyastWed, 12 Sep 2018 8:38:02 am
5.GeroMinosWed, 12 Sep 2018 8:43:56 am
6.BriSan.Wed, 12 Sep 2018 8:47:10 am
7.EveRan2013Wed, 12 Sep 2018 9:20:29 am
8.metkerrekeWed, 12 Sep 2018 9:25:58 am
9.JoanyoWed, 12 Sep 2018 9:52:47 am
10.HuntingBWed, 12 Sep 2018 10:08:12 am
11.johnny lightningWed, 12 Sep 2018 10:09:04 am
12.Hannah_NWed, 12 Sep 2018 10:21:53 am
13.brestWed, 12 Sep 2018 10:27:37 am
14.JeankeMotarWed, 12 Sep 2018 10:29:52 am
15.Sabbi17Wed, 12 Sep 2018 10:50:29 am
16.kadeekesWed, 12 Sep 2018 11:03:32 am
17.WaldogWed, 12 Sep 2018 12:31:39 pm
18.heksemie anirca62Wed, 12 Sep 2018 12:34:49 pm
19.Edine4geoWed, 12 Sep 2018 12:36:43 pm
20.badmintonnersWed, 12 Sep 2018 12:39:35 pm
21.krisalninWed, 12 Sep 2018 1:17:10 pm
22.LiaIneWed, 12 Sep 2018 1:33:08 pm
23.daniella&julienWed, 12 Sep 2018 2:15:57 pm
24.rickrichWed, 12 Sep 2018 2:50:25 pm
25.Bruintje.de.beerWed, 12 Sep 2018 2:50:34 pm
26.wandeltrakkerWed, 12 Sep 2018 3:13:02 pm
27.ZwuzzeWed, 12 Sep 2018 3:34:43 pm
28.sponskenWed, 12 Sep 2018 4:20:20 pm
29.jochen419Wed, 12 Sep 2018 5:08:17 pm
30.de vliegenvangersWed, 12 Sep 2018 5:16:56 pm
31.snollebollekesWed, 12 Sep 2018 6:25:29 pm
32.ErannWed, 12 Sep 2018 6:41:27 pm
33.egelshofWed, 12 Sep 2018 7:18:17 pm
34.team fredstromWed, 12 Sep 2018 7:20:38 pm
35.haka1Wed, 12 Sep 2018 7:37:41 pm
36.prins6Wed, 12 Sep 2018 7:47:42 pm
37.lifraWed, 12 Sep 2018 8:00:38 pm
38.yves2806Wed, 12 Sep 2018 8:07:03 pm
39.TORRAXWed, 12 Sep 2018 8:11:35 pm
40.de smileyWed, 12 Sep 2018 8:26:37 pm
41.MREBWed, 12 Sep 2018 9:05:23 pm
42.famandusWed, 12 Sep 2018 9:16:26 pm
43.tfxerWed, 12 Sep 2018 9:47:48 pm
44.The LevellersWed, 12 Sep 2018 9:50:14 pm
45.VOSPAMAWed, 12 Sep 2018 10:05:54 pm
46.Stylo & JoskeWed, 12 Sep 2018 10:09:48 pm
47.LuintoSTWed, 12 Sep 2018 10:23:55 pm
48.Scallie73Wed, 12 Sep 2018 10:52:23 pm
49.Joske0304699Wed, 12 Sep 2018 11:27:01 pm
50.Tonmar47Thu, 13 Sep 2018 12:08:52 am
51.machpatThu, 13 Sep 2018 12:29:52 am
52.casiswaryaThu, 13 Sep 2018 4:35:26 am
53.johannemieThu, 13 Sep 2018 8:01:50 am
54.rommarThu, 13 Sep 2018 9:35:05 am
55.Ricky50Thu, 13 Sep 2018 11:07:35 am
56.timmy2730Thu, 13 Sep 2018 1:58:35 pm
57.R_JThu, 13 Sep 2018 3:38:10 pm
58.geo_bartendanielleThu, 13 Sep 2018 3:48:35 pm
59.PoeFThu, 13 Sep 2018 4:49:34 pm
60.HEYTSEThu, 13 Sep 2018 7:55:39 pm
61.mikee67Thu, 13 Sep 2018 7:55:58 pm
62.maguy15Thu, 13 Sep 2018 9:54:10 pm
63.GeellukamajaThu, 13 Sep 2018 10:16:50 pm
64.LuibeerkeFri, 14 Sep 2018 8:11:32 am
65.Nettles2014Fri, 14 Sep 2018 8:29:31 am
66.Dine =)Fri, 14 Sep 2018 1:26:19 pm
67.tinrafFri, 14 Sep 2018 2:53:57 pm
68.liliremFri, 14 Sep 2018 4:29:47 pm
69.kato3Fri, 14 Sep 2018 6:50:31 pm
70.veromekeFri, 14 Sep 2018 8:46:14 pm
71.TeamYarDieFri, 14 Sep 2018 10:31:35 pm
72.sweetjoeSat, 15 Sep 2018 1:53:25 pm
73.akelaindeweerSat, 15 Sep 2018 2:40:09 pm
74.tesslooSat, 15 Sep 2018 5:38:12 pm
75.2donickySat, 15 Sep 2018 6:16:09 pm
76.golodhSat, 15 Sep 2018 8:47:51 pm
77.DenDulleSat, 15 Sep 2018 9:55:23 pm
78.KHU1Sat, 15 Sep 2018 11:21:42 pm
79.DEN TROLSun, 16 Sep 2018 10:05:45 am
80.KLUPPELSun, 16 Sep 2018 8:19:40 pm
81.Dany65Sun, 16 Sep 2018 10:25:02 pm
82.CrapionMon, 17 Sep 2018 7:42:52 am
83.lankatrasMon, 17 Sep 2018 10:33:31 am
84.fravanoMon, 17 Sep 2018 2:14:58 pm
85.Edenchris1959Mon, 17 Sep 2018 2:50:02 pm
86.tripper13Mon, 17 Sep 2018 6:19:20 pm
87.Team XennaMon, 17 Sep 2018 8:59:06 pm
88.homeboyMon, 17 Sep 2018 9:13:04 pm
89.BergheboyMon, 17 Sep 2018 9:35:03 pm
90.tismooizoTue, 18 Sep 2018 12:11:28 pm
91.PtitmamanNeroBelgiumTue, 18 Sep 2018 12:52:34 pm
92.AladaubeTue, 18 Sep 2018 5:37:55 pm
93.De woesten en SmurfelTue, 18 Sep 2018 6:59:22 pm
94.Team_Griml0rdTue, 18 Sep 2018 9:21:43 pm
95.RudyDCTue, 18 Sep 2018 11:43:00 pm
96.Greetje800Wed, 19 Sep 2018 12:59:58 am